AAL157 LEMD-KMIA

Flight info

Callsign AAL157
Flight time 9h 25m
Altitude 30000
Route ZMR DCT DESAT DCT STG DCT KOPAS/M085F300 DCT 45N020W 46N030W 45N040W 44N050W 41N060W DCT MUNEY M202 ONGOT DCT PADRK M203 SNAGY/N0507F300 BNFSH3
Aircraft B788/H-SDE1E2E3FGHIJ2J3J4J5M1RWXY/LB1D1

Departure

Time 2026-05-04 13:26
Airport Adolfo Suárez Madrid–Barajas Airport (LEMD)

Arrival

Time 2026-05-04 22:51
Airport Miami International Airport (KMIA)
Time Latitude Longitude Altitude Speed Heading
2026-05-04 13:01 40.49057 -3.56867 1981 ft 0 kts 89°
2026-05-04 13:12 40.49057 -3.56868 1981 ft 1 kts 89°
2026-05-04 13:13 40.49057 -3.56897 1982 ft 3 kts 89°
2026-05-04 13:13 40.49057 -3.56928 1981 ft 2 kts 89°
2026-05-04 13:13 40.49054 -3.56951 1981 ft 3 kts 71°
2026-05-04 13:13 40.49049 -3.56975 1983 ft 3 kts 99°
2026-05-04 13:14 40.49058 -3.57002 1984 ft 3 kts 128°
2026-05-04 13:14 40.49066 -3.57013 1982 ft 3 kts 128°
2026-05-04 13:14 40.49055 -3.56985 1983 ft 4 kts 117°
2026-05-04 13:14 40.49038 -3.56979 1984 ft 4 kts 181°
2026-05-04 13:15 40.49020 -3.56988 1985 ft 4 kts 212°
2026-05-04 13:15 40.49011 -3.57003 1988 ft 4 kts 229°
2026-05-04 13:15 40.49012 -3.56998 1988 ft 0 kts 180°
2026-05-04 13:18 40.48989 -3.56998 1988 ft 7 kts 180°
2026-05-04 13:18 40.48908 -3.57000 1985 ft 16 kts 181°
2026-05-04 13:19 40.48782 -3.56999 1985 ft 18 kts 180°
2026-05-04 13:19 40.48667 -3.56999 1992 ft 13 kts 179°
2026-05-04 13:19 40.48596 -3.56999 1998 ft 7 kts 180°
2026-05-04 13:19 40.48556 -3.56999 1999 ft 5 kts 180°
2026-05-04 13:20 40.48519 -3.56999 1999 ft 5 kts 180°
2026-05-04 13:20 40.48497 -3.57000 2000 ft 1 kts 181°
2026-05-04 13:20 40.48490 -3.57000 1999 ft 7 kts 181°
2026-05-04 13:20 40.48438 -3.56997 2004 ft 4 kts 177°
2026-05-04 13:21 40.48417 -3.56996 2006 ft 4 kts 177°
2026-05-04 13:21 40.48368 -3.56987 2011 ft 9 kts 174°
2026-05-04 13:21 40.48329 -3.57026 2009 ft 4 kts 256°
2026-05-04 13:21 40.48352 -3.57074 2006 ft 11 kts 315°
2026-05-04 13:22 40.48420 -3.57145 2005 ft 14 kts 321°
2026-05-04 13:22 40.48515 -3.57213 1999 ft 17 kts 345°
2026-05-04 13:22 40.48634 -3.57225 1999 ft 16 kts
2026-05-04 13:22 40.48692 -3.57247 1994 ft 3 kts 293°
2026-05-04 13:23 40.48687 -3.57258 1994 ft 1 kts 246°
2026-05-04 13:23 40.48660 -3.57308 1998 ft 10 kts 232°
2026-05-04 13:23 40.48620 -3.57376 1999 ft 8 kts 233°
2026-05-04 13:23 40.48577 -3.57452 1999 ft 13 kts 233°
2026-05-04 13:24 40.48519 -3.57526 1997 ft 8 kts 202°
2026-05-04 13:24 40.48460 -3.57532 1998 ft 10 kts 176°
2026-05-04 13:24 40.48407 -3.57512 1999 ft 4 kts 148°
2026-05-04 13:25 40.48356 -3.57465 2002 ft 13 kts 143°
2026-05-04 13:25 40.48155 -3.57262 2007 ft 65 kts 142°
2026-05-04 13:25 40.47643 -3.56740 1999 ft 122 kts 142°
2026-05-04 13:25 40.46829 -3.55916 1979 ft 171 kts 143°
2026-05-04 13:26 40.45863 -3.54826 2347 ft 188 kts 141°
2026-05-04 13:26 40.44890 -3.53679 3233 ft 186 kts 140°
2026-05-04 13:26 40.43981 -3.52355 3837 ft 204 kts 133°
2026-05-04 13:26 40.42961 -3.50968 4394 ft 218 kts 138°
2026-05-04 13:27 40.41856 -3.49539 5045 ft 232 kts 137°
2026-05-04 13:27 40.40686 -3.47991 5609 ft 246 kts 140°
2026-05-04 13:27 40.39452 -3.46449 6530 ft 245 kts 141°
2026-05-04 13:27 40.38188 -3.44898 7279 ft 252 kts 141°
2026-05-04 13:28 40.36908 -3.43316 8199 ft 253 kts 140°
2026-05-04 13:28 40.35572 -3.41790 8936 ft 260 kts 153°
2026-05-04 13:28 40.33791 -3.41149 9265 ft 276 kts 183°
2026-05-04 13:28 40.31966 -3.41741 10184 ft 268 kts 209°
2026-05-04 13:29 40.30397 -3.43201 10569 ft 289 kts 221°
2026-05-04 13:29 40.28840 -3.45043 10801 ft 313 kts 230°
2026-05-04 13:29 40.27737 -3.47609 11034 ft 335 kts 251°
2026-05-04 13:29 40.27419 -3.50623 11973 ft 336 kts 271°
2026-05-04 13:30 40.27733 -3.53689 12677 ft 344 kts 278°
2026-05-04 13:30 40.28164 -3.56775 13264 ft 348 kts 279°
2026-05-04 13:30 40.28605 -3.59890 14146 ft 350 kts 278°
2026-05-04 13:30 40.29010 -3.63051 14906 ft 352 kts 278°
2026-05-04 13:31 40.29407 -3.66228 15664 ft 355 kts 278°
2026-05-04 13:31 40.29801 -3.69272 16388 ft 357 kts 278°
2026-05-04 13:31 40.30225 -3.72500 17100 ft 360 kts 278°
2026-05-04 13:31 40.30643 -3.75740 17792 ft 362 kts 278°
2026-05-04 13:32 40.31056 -3.78964 18464 ft 364 kts 278°
2026-05-04 13:32 40.31477 -3.82254 19057 ft 368 kts 278°
2026-05-04 13:32 40.31901 -3.85570 19642 ft 370 kts 278°
2026-05-04 13:32 40.32329 -3.88915 20198 ft 373 kts 278°
2026-05-04 13:33 40.32760 -3.92286 20742 ft 377 kts 278°
2026-05-04 13:33 40.33193 -3.95691 21261 ft 380 kts 278°
2026-05-04 13:33 40.33627 -3.99119 21777 ft 383 kts 278°
2026-05-04 13:33 40.34065 -4.02583 22277 ft 386 kts 278°
2026-05-04 13:34 40.34506 -4.06072 22762 ft 390 kts 279°
2026-05-04 13:34 40.34949 -4.09593 23231 ft 393 kts 279°
2026-05-04 13:34 40.35394 -4.13138 23668 ft 396 kts 279°
2026-05-04 13:34 40.35841 -4.16708 24081 ft 397 kts 278°
2026-05-04 13:35 40.36383 -4.20264 24483 ft 400 kts 285°
2026-05-04 13:35 40.38892 -4.26806 25228 ft 408 kts 305°
2026-05-04 13:35 40.40831 -4.29561 25621 ft 414 kts 315°
2026-05-04 13:36 40.42958 -4.32067 25989 ft 417 kts 314°
2026-05-04 13:36 40.45150 -4.34641 26352 ft 419 kts 314°
2026-05-04 13:36 40.47336 -4.37193 26688 ft 421 kts 314°
2026-05-04 13:36 40.49501 -4.39727 27043 ft 423 kts 314°
2026-05-04 13:37 40.51728 -4.42349 27374 ft 425 kts 314°
2026-05-04 13:37 40.53909 -4.44916 27697 ft 428 kts 314°
2026-05-04 13:37 40.56133 -4.47531 28026 ft 430 kts 314°
2026-05-04 13:37 40.58364 -4.50156 28421 ft 430 kts 314°
2026-05-04 13:38 40.60587 -4.52776 28889 ft 428 kts 313°
2026-05-04 13:38 40.62807 -4.55396 29340 ft 427 kts 313°
2026-05-04 13:38 40.65016 -4.58006 29797 ft 426 kts 313°
2026-05-04 13:38 40.67230 -4.60624 29964 ft 431 kts 313°
2026-05-04 13:39 40.69460 -4.63263 29968 ft 429 kts 313°
2026-05-04 13:39 40.73870 -4.68484 29962 ft 424 kts 313°
2026-05-04 13:40 40.78249 -4.73687 29960 ft 422 kts 313°
2026-05-04 13:40 40.82622 -4.78887 29971 ft 424 kts 313°
2026-05-04 13:41 40.86997 -4.84099 29970 ft 423 kts 313°
2026-05-04 13:41 40.91345 -4.89290 29966 ft 423 kts 313°
2026-05-04 13:42 40.97899 -4.97130 29972 ft 423 kts 313°
2026-05-04 13:42 41.02295 -5.02409 30017 ft 436 kts 313°
2026-05-04 13:43 41.06848 -5.07873 30352 ft 444 kts 313°
2026-05-04 13:43 41.09142 -5.10633 30567 ft 446 kts 313°
2026-05-04 13:43 41.11444 -5.13409 30788 ft 447 kts 313°
2026-05-04 13:44 41.13758 -5.16199 31013 ft 449 kts 313°
2026-05-04 13:44 41.16049 -5.18964 31211 ft 451 kts 313°
2026-05-04 13:44 41.18373 -5.21771 31432 ft 453 kts 313°
2026-05-04 13:44 41.20706 -5.24593 31640 ft 454 kts 313°
2026-05-04 13:45 41.23040 -5.27418 31976 ft 454 kts 313°
2026-05-04 13:45 41.25385 -5.30259 32207 ft 455 kts 313°
2026-05-04 13:45 41.27727 -5.33100 32479 ft 455 kts 313°
2026-05-04 13:45 41.30063 -5.35936 32828 ft 453 kts 313°
2026-05-04 13:46 41.32395 -5.38772 32962 ft 457 kts 313°
2026-05-04 13:46 41.34717 -5.41599 32963 ft 457 kts 313°
2026-05-04 13:46 41.39379 -5.47275 32965 ft 452 kts 313°
2026-05-04 13:47 41.44026 -5.52954 32981 ft 452 kts 313°
2026-05-04 13:47 41.48656 -5.58617 32978 ft 455 kts 313°
2026-05-04 13:48 41.53200 -5.64482 32991 ft 449 kts 305°
2026-05-04 13:48 41.56829 -5.71228 32982 ft 447 kts 301°
2026-05-04 13:49 41.60367 -5.77992 32978 ft 444 kts 301°
2026-05-04 13:49 41.63908 -5.84778 32971 ft 445 kts 301°
2026-05-04 13:50 41.67444 -5.91563 32973 ft 447 kts 301°
2026-05-04 13:50 41.71002 -5.98410 32968 ft 447 kts 301°
2026-05-04 13:51 41.74545 -6.05243 32971 ft 446 kts 301°
2026-05-04 13:51 41.78078 -6.12070 32965 ft 445 kts 301°
2026-05-04 13:52 41.83330 -6.22253 32954 ft 446 kts 301°
2026-05-04 13:53 41.86872 -6.29137 32956 ft 448 kts 301°
2026-05-04 13:53 41.90388 -6.35991 32957 ft 448 kts 301°
2026-05-04 13:54 41.95680 -6.46335 32956 ft 447 kts 300°
2026-05-04 13:55 42.00934 -6.56639 32957 ft 444 kts 300°
2026-05-04 13:55 42.06169 -6.66943 32977 ft 447 kts 300°
2026-05-04 13:56 42.09683 -6.73878 32991 ft 447 kts 300°
2026-05-04 13:57 42.14932 -6.84265 32995 ft 446 kts 300°
2026-05-04 13:58 42.21899 -6.98112 33000 ft 448 kts 300°
2026-05-04 13:58 42.27149 -7.08587 33016 ft 449 kts 300°
2026-05-04 13:59 42.30645 -7.15584 33024 ft 449 kts 300°
2026-05-04 14:00 42.35860 -7.26049 33024 ft 447 kts 300°
2026-05-04 14:00 42.41041 -7.36487 33022 ft 450 kts 300°
2026-05-04 14:01 42.44537 -7.43544 33024 ft 448 kts 300°
2026-05-04 14:02 42.49729 -7.54064 33028 ft 449 kts 300°
2026-05-04 14:02 42.53212 -7.61139 33029 ft 451 kts 300°
2026-05-04 14:03 42.56655 -7.68150 33028 ft 448 kts 300°
2026-05-04 14:03 42.60109 -7.75201 33027 ft 448 kts 300°
2026-05-04 14:04 42.65280 -7.85788 33027 ft 448 kts 300°
2026-05-04 14:04 42.68697 -7.92805 33029 ft 448 kts 300°
2026-05-04 14:05 42.73857 -8.03431 33047 ft 448 kts 300°
2026-05-04 14:06 42.77309 -8.10564 33042 ft 453 kts 300°
2026-05-04 14:06 42.80751 -8.17688 33041 ft 452 kts 300°
2026-05-04 14:07 42.84202 -8.24852 33041 ft 451 kts 300°
2026-05-04 14:07 42.87066 -8.30810 33038 ft 451 kts 300°
2026-05-04 14:08 42.91053 -8.39124 33076 ft 449 kts 300°
2026-05-04 14:08 42.93416 -8.45378 33059 ft 447 kts 287°
2026-05-04 14:09 42.96544 -8.57478 33045 ft 449 kts 287°
2026-05-04 14:10 42.99629 -8.69490 33049 ft 447 kts 287°
2026-05-04 14:10 43.01679 -8.77523 33052 ft 448 kts 288°
2026-05-04 14:11 43.03733 -8.85580 33062 ft 449 kts 288°
2026-05-04 14:11 43.06810 -8.97713 33065 ft 449 kts 287°
2026-05-04 14:12 43.08834 -9.05729 33059 ft 450 kts 287°
2026-05-04 14:13 43.11928 -9.18037 33079 ft 464 kts 288°
2026-05-04 14:13 43.14038 -9.26463 33341 ft 469 kts 288°
2026-05-04 14:13 43.15096 -9.30701 33496 ft 471 kts 288°
2026-05-04 14:14 43.16155 -9.34954 33658 ft 473 kts 288°
2026-05-04 14:14 43.18278 -9.43493 34121 ft 472 kts 288°
2026-05-04 14:14 43.19335 -9.47762 34300 ft 472 kts 288°
2026-05-04 14:15 43.21442 -9.56288 34686 ft 472 kts 288°
2026-05-04 14:15 43.23545 -9.64825 35015 ft 474 kts 288°
2026-05-04 14:16 43.25650 -9.73409 35356 ft 475 kts 288°
2026-05-04 14:16 43.26701 -9.77703 35546 ft 475 kts 288°
2026-05-04 14:17 43.28781 -9.86236 35958 ft 474 kts 288°
2026-05-04 14:17 43.29825 -9.90526 36188 ft 473 kts 288°
2026-05-04 14:17 43.31907 -9.99106 36539 ft 473 kts 288°
2026-05-04 14:18 43.32944 -10.03398 36730 ft 474 kts 288°
2026-05-04 14:18 43.35017 -10.11992 37088 ft 474 kts 288°
2026-05-04 14:19 43.37083 -10.20588 37463 ft 474 kts 288°
2026-05-04 14:19 43.38113 -10.24890 37658 ft 474 kts 288°
2026-05-04 14:19 43.39144 -10.29202 37813 ft 475 kts 288°
2026-05-04 14:19 43.40175 -10.33520 37992 ft 475 kts 288°
2026-05-04 14:20 43.41206 -10.37845 38058 ft 477 kts 288°
2026-05-04 14:20 43.43257 -10.46481 38069 ft 477 kts 288°
2026-05-04 14:21 43.46320 -10.59439 38084 ft 473 kts 288°
2026-05-04 14:21 43.48353 -10.68080 38080 ft 474 kts 288°
2026-05-04 14:22 43.50379 -10.76728 38086 ft 474 kts 288°
2026-05-04 14:22 43.52400 -10.85385 38088 ft 475 kts 288°
2026-05-04 14:23 43.55433 -10.98441 38087 ft 477 kts 288°
2026-05-04 14:24 43.57433 -11.07092 38089 ft 475 kts 288°
2026-05-04 14:24 43.59431 -11.15774 38082 ft 474 kts 288°
2026-05-04 14:25 43.61419 -11.24440 38093 ft 474 kts 288°
2026-05-04 14:25 43.64394 -11.37479 38095 ft 475 kts 288°
2026-05-04 14:26 43.66358 -11.46129 38100 ft 475 kts 288°
2026-05-04 14:26 43.68335 -11.54869 38100 ft 477 kts 288°
2026-05-04 14:27 43.70312 -11.63646 38106 ft 477 kts 288°
2026-05-04 14:27 43.72279 -11.72414 38108 ft 476 kts 288°
2026-05-04 14:28 43.74222 -11.81109 38109 ft 475 kts 288°
2026-05-04 14:28 43.76165 -11.89843 38110 ft 474 kts 288°
2026-05-04 14:29 43.80028 -12.07311 38108 ft 476 kts 288°
2026-05-04 14:30 43.81956 -12.16082 38110 ft 475 kts 288°
2026-05-04 14:31 43.84815 -12.29156 38102 ft 474 kts 288°
2026-05-04 14:32 43.88610 -12.46639 38111 ft 473 kts 288°
2026-05-04 14:32 43.90499 -12.55391 38115 ft 474 kts 288°
2026-05-04 14:33 43.92387 -12.64179 38131 ft 476 kts 288°
2026-05-04 14:33 43.94263 -12.72946 38135 ft 477 kts 288°
2026-05-04 14:34 43.96146 -12.81788 38129 ft 476 kts 288°
2026-05-04 14:34 43.98010 -12.90570 38121 ft 473 kts 288°
2026-05-04 14:35 43.99863 -12.99348 38127 ft 473 kts 287°
2026-05-04 14:35 44.01440 -13.08232 38144 ft 475 kts 286°
2026-05-04 14:36 44.03021 -13.17181 38131 ft 476 kts 285°
2026-05-04 14:36 44.04562 -13.26086 38135 ft 473 kts 285°
2026-05-04 14:37 44.06099 -13.34925 38136 ft 472 kts 285°
2026-05-04 14:37 44.07626 -13.43801 38136 ft 472 kts 285°
2026-05-04 14:38 44.09153 -13.52691 38148 ft 472 kts 285°
2026-05-04 14:38 44.10672 -13.61593 38151 ft 472 kts 285°
2026-05-04 14:39 44.12175 -13.70444 38148 ft 472 kts 285°
2026-05-04 14:39 44.13676 -13.79331 38162 ft 472 kts 285°
2026-05-04 14:40 44.15915 -13.92666 38153 ft 471 kts 285°
2026-05-04 14:40 44.17401 -14.01570 38155 ft 472 kts 285°
2026-05-04 14:41 44.18879 -14.10484 38163 ft 472 kts 285°
2026-05-04 14:42 44.21813 -14.28299 38166 ft 473 kts 285°
2026-05-04 14:42 44.23272 -14.37229 38177 ft 472 kts 285°
2026-05-04 14:43 44.24722 -14.46153 38182 ft 471 kts 285°
2026-05-04 14:43 44.26155 -14.55014 38181 ft 471 kts 285°
2026-05-04 14:44 44.27588 -14.63928 38182 ft 470 kts 285°
2026-05-04 14:44 44.29012 -14.72832 38178 ft 469 kts 285°
2026-05-04 14:45 44.30426 -14.81718 38180 ft 469 kts 285°
2026-05-04 14:45 44.31834 -14.90619 38181 ft 470 kts 285°
2026-05-04 14:46 44.33241 -14.99559 38191 ft 471 kts 285°
2026-05-04 14:46 44.34642 -15.08508 38196 ft 472 kts 285°
2026-05-04 14:47 44.36027 -15.17406 38191 ft 469 kts 285°
2026-05-04 14:47 44.37402 -15.26284 38185 ft 467 kts 285°
2026-05-04 14:48 44.38769 -15.35159 38186 ft 467 kts 285°
2026-05-04 14:48 44.40129 -15.44040 38188 ft 467 kts 285°
2026-05-04 14:49 44.41482 -15.52925 38191 ft 467 kts 285°
2026-05-04 14:49 44.42830 -15.61825 38190 ft 468 kts 285°
2026-05-04 14:50 44.44172 -15.70740 38195 ft 468 kts 285°
2026-05-04 14:50 44.45507 -15.79656 38206 ft 468 kts 285°
2026-05-04 14:51 44.46837 -15.88583 38205 ft 468 kts 285°
2026-05-04 14:51 44.48155 -15.97487 38203 ft 470 kts 285°
2026-05-04 14:52 44.49469 -16.06416 38213 ft 467 kts 285°
2026-05-04 14:52 44.50774 -16.15327 38219 ft 466 kts 285°
2026-05-04 14:53 44.52070 -16.24234 38218 ft 466 kts 284°
2026-05-04 14:53 44.53351 -16.33087 38221 ft 466 kts 284°
2026-05-04 14:54 44.54631 -16.41989 38224 ft 465 kts 285°
2026-05-04 14:54 44.55909 -16.50920 38230 ft 467 kts 284°
2026-05-04 14:55 44.57172 -16.59803 38228 ft 468 kts 284°
2026-05-04 14:55 44.58439 -16.68766 38235 ft 468 kts 284°
2026-05-04 14:56 44.59700 -16.77743 38236 ft 469 kts 284°
2026-05-04 14:56 44.60954 -16.86725 38237 ft 468 kts 284°
2026-05-04 14:57 44.62194 -16.95657 38240 ft 470 kts 284°
2026-05-04 14:57 44.63439 -17.04682 38247 ft 470 kts 284°
2026-05-04 14:58 44.64464 -17.12159 38246 ft 468 kts 284°
2026-05-04 14:58 44.65690 -17.21141 38245 ft 467 kts 284°
2026-05-04 14:59 44.66905 -17.30106 38244 ft 467 kts 284°
2026-05-04 15:00 44.68725 -17.43636 38257 ft 471 kts 284°
2026-05-04 15:00 44.69927 -17.52638 38263 ft 470 kts 284°
2026-05-04 15:01 44.71723 -17.66200 38271 ft 470 kts 284°
2026-05-04 15:01 44.72912 -17.75251 38271 ft 470 kts 283°
2026-05-04 15:02 44.74091 -17.84291 38266 ft 470 kts 283°
2026-05-04 15:02 44.75267 -17.93354 38274 ft 471 kts 283°
2026-05-04 15:03 44.76430 -18.02378 38283 ft 472 kts 283°
2026-05-04 15:03 44.77593 -18.11468 38262 ft 471 kts 283°
2026-05-04 15:04 44.78746 -18.20537 38275 ft 470 kts 283°
2026-05-04 15:04 44.79889 -18.29590 38268 ft 469 kts 283°
2026-05-04 15:05 44.81023 -18.38625 38278 ft 469 kts 283°
2026-05-04 15:05 44.82144 -18.47620 38282 ft 470 kts 283°
2026-05-04 15:06 44.83270 -18.56712 38274 ft 470 kts 282°
2026-05-04 15:07 44.84945 -18.70357 38292 ft 473 kts 282°
2026-05-04 15:07 44.86057 -18.79504 38299 ft 472 kts 282°
2026-05-04 15:08 44.87159 -18.88622 38298 ft 471 kts 282°
2026-05-04 15:08 44.88252 -18.97725 38298 ft 471 kts 282°
2026-05-04 15:09 44.89327 -19.06751 38291 ft 469 kts 282°
2026-05-04 15:09 44.90400 -19.15815 38297 ft 469 kts 282°
2026-05-04 15:10 44.92001 -19.29463 38300 ft 471 kts 282°
2026-05-04 15:11 44.93595 -19.43203 38307 ft 473 kts 281°
2026-05-04 15:11 44.94642 -19.52308 38303 ft 471 kts 281°
2026-05-04 15:12 44.95684 -19.61436 38304 ft 470 kts 281°
2026-05-04 15:12 44.96717 -19.70558 38296 ft 469 kts 281°
2026-05-04 15:13 44.97743 -19.79676 38300 ft 470 kts 281°
2026-05-04 15:13 44.98763 -19.88818 38303 ft 472 kts 281°
2026-05-04 15:14 44.99773 -19.97928 38313 ft 473 kts 281°
2026-05-04 15:14 45.01040 -20.07036 38312 ft 472 kts 283°
2026-05-04 15:15 45.02337 -20.16131 38317 ft 471 kts 283°
2026-05-04 15:15 45.03657 -20.25204 38316 ft 470 kts 283°
2026-05-04 15:16 45.05593 -20.38774 38321 ft 469 kts 283°
2026-05-04 15:17 45.07512 -20.52317 38330 ft 470 kts 283°
2026-05-04 15:17 45.09433 -20.65984 38316 ft 472 kts 283°
2026-05-04 15:18 45.10705 -20.75116 38333 ft 473 kts 283°
2026-05-04 15:19 45.12601 -20.88824 38323 ft 473 kts 283°
2026-05-04 15:19 45.14473 -21.02479 38326 ft 472 kts 283°
2026-05-04 15:20 45.15715 -21.11615 38330 ft 472 kts 282°
2026-05-04 15:20 45.16948 -21.20746 38328 ft 471 kts 282°
2026-05-04 15:21 45.18174 -21.29869 38331 ft 472 kts 282°
2026-05-04 15:22 45.20006 -21.43633 38332 ft 474 kts 282°
2026-05-04 15:22 45.21825 -21.57418 38335 ft 474 kts 282°
2026-05-04 15:23 45.23028 -21.66617 38339 ft 474 kts 282°
2026-05-04 15:23 45.24215 -21.75748 38328 ft 473 kts 282°
2026-05-04 15:24 45.26578 -21.94112 38334 ft 472 kts 282°
2026-05-04 15:25 45.27748 -22.03296 38342 ft 472 kts 282°
2026-05-04 15:26 45.29486 -22.17049 38330 ft 474 kts 282°
2026-05-04 15:26 45.31218 -22.30899 38344 ft 475 kts 281°
2026-05-04 15:27 45.32936 -22.44784 38354 ft 475 kts 281°
2026-05-04 15:28 45.34629 -22.58606 38350 ft 474 kts 281°
2026-05-04 15:29 45.36311 -22.72478 38345 ft 474 kts 281°
2026-05-04 15:30 45.40164 -23.04837 38348 ft 474 kts 281°
2026-05-04 15:31 45.41785 -23.18702 38355 ft 474 kts 281°
2026-05-04 15:32 45.44457 -23.41886 38366 ft 477 kts 281°
2026-05-04 15:34 45.47087 -23.65138 38359 ft 473 kts 281°
2026-05-04 15:34 45.48628 -23.78971 38354 ft 473 kts 281°
2026-05-04 15:35 45.50160 -23.92885 38368 ft 474 kts 281°
2026-05-04 15:36 45.51678 -24.06832 38371 ft 474 kts 281°
2026-05-04 15:36 45.52680 -24.16121 38373 ft 474 kts 281°
2026-05-04 15:37 45.53667 -24.25354 38372 ft 473 kts 280°
2026-05-04 15:37 45.54652 -24.34633 38372 ft 473 kts 280°
2026-05-04 15:38 45.55628 -24.43905 38374 ft 472 kts 280°
2026-05-04 15:38 45.56596 -24.53178 38373 ft 472 kts 280°
2026-05-04 15:39 45.57556 -24.62448 38371 ft 472 kts 280°
2026-05-04 15:40 45.58981 -24.76345 38378 ft 474 kts 280°
2026-05-04 15:40 45.59931 -24.85713 38379 ft 476 kts 280°
2026-05-04 15:41 45.60868 -24.95025 38386 ft 475 kts 280°
2026-05-04 15:41 45.61800 -25.04377 38377 ft 473 kts 280°
2026-05-04 15:42 45.62715 -25.13616 38377 ft 471 kts 280°
2026-05-04 15:42 45.63625 -25.22896 38381 ft 472 kts 280°
2026-05-04 15:43 45.64530 -25.32200 38379 ft 473 kts 280°
2026-05-04 15:43 45.65428 -25.41519 38385 ft 474 kts 280°
2026-05-04 15:44 45.66320 -25.50858 38387 ft 473 kts 280°
2026-05-04 15:44 45.67202 -25.60165 38388 ft 472 kts 280°
2026-05-04 15:45 45.68074 -25.69456 38387 ft 471 kts 279°
2026-05-04 15:45 45.68932 -25.78680 38392 ft 470 kts 279°
2026-05-04 15:46 45.69789 -25.87972 38389 ft 471 kts 279°
2026-05-04 15:46 45.70639 -25.97288 38401 ft 472 kts 279°
2026-05-04 15:47 45.71341 -26.05038 38405 ft 473 kts 279°
2026-05-04 15:47 45.72180 -26.14372 38400 ft 473 kts 279°
2026-05-04 15:48 45.73010 -26.23701 38407 ft 473 kts 279°
2026-05-04 15:48 45.74239 -26.37686 38399 ft 473 kts 279°
2026-05-04 15:49 45.75051 -26.47029 38407 ft 473 kts 279°
2026-05-04 15:49 45.75855 -26.56382 38407 ft 473 kts 279°
2026-05-04 15:50 45.76651 -26.65726 38410 ft 472 kts 279°
2026-05-04 15:50 45.77439 -26.75066 38410 ft 472 kts 279°
2026-05-04 15:51 45.78219 -26.84407 38408 ft 472 kts 279°
2026-05-04 15:51 45.78992 -26.93751 38405 ft 472 kts 279°
2026-05-04 15:52 45.79751 -27.03033 38403 ft 472 kts 278°
2026-05-04 15:52 45.80509 -27.12379 38406 ft 471 kts 278°
2026-05-04 15:53 45.81256 -27.21708 38408 ft 471 kts 278°
2026-05-04 15:53 45.81998 -27.31054 38405 ft 471 kts 278°
2026-05-04 15:54 45.82730 -27.40382 38414 ft 471 kts 278°
2026-05-04 15:54 45.83457 -27.49737 38416 ft 473 kts 278°
2026-05-04 15:55 45.84179 -27.59139 38417 ft 474 kts 278°
2026-05-04 15:55 45.84888 -27.68476 38423 ft 473 kts 278°
2026-05-04 15:56 45.85593 -27.77854 38425 ft 472 kts 278°
2026-05-04 15:56 45.86288 -27.87208 38421 ft 471 kts 278°
2026-05-04 15:57 45.86975 -27.96553 38419 ft 472 kts 278°
2026-05-04 15:57 45.87656 -28.05930 38423 ft 472 kts 278°
2026-05-04 15:58 45.88331 -28.15322 38428 ft 473 kts 278°
2026-05-04 15:58 45.88997 -28.24711 38430 ft 473 kts 278°
2026-05-04 15:59 45.89657 -28.34117 38418 ft 473 kts 278°
2026-05-04 15:59 45.90302 -28.43435 38423 ft 471 kts 278°
2026-05-04 16:00 45.90942 -28.52779 38425 ft 469 kts 278°
2026-05-04 16:00 45.91575 -28.62124 38425 ft 470 kts 277°
2026-05-04 16:01 45.92201 -28.71490 38428 ft 471 kts 277°
2026-05-04 16:01 45.92820 -28.80881 38431 ft 472 kts 277°
2026-05-04 16:02 45.93428 -28.90208 38427 ft 472 kts 277°
2026-05-04 16:03 45.94330 -29.04286 38426 ft 470 kts 277°
2026-05-04 16:03 45.94920 -29.13628 38424 ft 469 kts 277°
2026-05-04 16:04 45.95500 -29.22953 38423 ft 469 kts 277°
2026-05-04 16:04 45.96361 -29.37023 38427 ft 472 kts 277°
2026-05-04 16:05 45.96925 -29.46386 38431 ft 473 kts 277°
2026-05-04 16:06 45.97758 -29.60487 38432 ft 471 kts 277°
2026-05-04 16:07 45.98837 -29.79185 38422 ft 468 kts 277°
2026-05-04 16:08 45.99883 -29.97870 38433 ft 470 kts 276°
2026-05-04 16:09 45.98797 -30.21464 38442 ft 472 kts 268°
2026-05-04 16:10 45.97714 -30.40257 38428 ft 471 kts 268°
2026-05-04 16:11 45.96599 -30.59034 38442 ft 474 kts 268°
2026-05-04 16:12 45.94859 -30.87329 38434 ft 472 kts 269°
2026-05-04 16:13 45.93666 -31.06102 38433 ft 472 kts 269°
2026-05-04 16:14 45.92445 -31.24827 38438 ft 472 kts 269°
2026-05-04 16:16 45.90867 -31.48326 38428 ft 471 kts 269°
2026-05-04 16:17 45.89252 -31.71679 38427 ft 472 kts 270°
2026-05-04 16:18 45.87920 -31.90413 38430 ft 473 kts 270°
2026-05-04 16:19 45.86209 -32.13906 38422 ft 472 kts 270°
2026-05-04 16:20 45.84453 -32.37275 38416 ft 472 kts 270°
2026-05-04 16:22 45.82656 -32.60556 38413 ft 470 kts 271°
2026-05-04 16:23 45.80443 -32.88411 38411 ft 468 kts 271°
2026-05-04 16:25 45.78165 -33.16247 38406 ft 470 kts 271°
2026-05-04 16:26 45.75429 -33.48583 38393 ft 463 kts 271°
2026-05-04 16:28 45.73433 -33.71506 38402 ft 467 kts 270°
2026-05-04 16:29 45.70560 -34.03573 38382 ft 462 kts 270°
2026-05-04 16:31 45.68466 -34.26337 38380 ft 461 kts 270°
2026-05-04 16:32 45.65899 -34.53544 38377 ft 460 kts 270°
2026-05-04 16:33 45.64152 -34.71690 38377 ft 461 kts 270°
2026-05-04 16:34 45.62818 -34.85332 38379 ft 462 kts 270°
2026-05-04 16:35 45.60251 -35.11106 38373 ft 464 kts 270°
2026-05-04 16:36 45.58869 -35.24748 38352 ft 462 kts 270°
2026-05-04 16:37 45.57475 -35.38330 38367 ft 460 kts 269°
2026-05-04 16:38 45.55597 -35.56383 38362 ft 459 kts 269°
2026-05-04 16:39 45.53218 -35.78855 38357 ft 459 kts 268°
2026-05-04 16:40 45.51270 -35.96933 38359 ft 462 kts 268°
2026-05-04 16:41 45.48793 -36.19535 38343 ft 460 kts 267°
2026-05-04 16:43 45.46303 -36.41834 38330 ft 456 kts 267°
2026-05-04 16:43 45.44783 -36.55245 38335 ft 457 kts 267°
2026-05-04 16:45 45.41720 -36.81852 38332 ft 454 kts 266°
2026-05-04 16:46 45.39118 -37.04020 38343 ft 453 kts 265°
2026-05-04 16:47 45.37025 -37.21582 38338 ft 448 kts 265°
2026-05-04 16:48 45.34910 -37.39091 38408 ft 451 kts 265°
2026-05-04 16:49 45.33842 -37.47819 39004 ft 445 kts 264°
2026-05-04 16:49 45.32779 -37.56486 39280 ft 445 kts 264°
2026-05-04 16:50 45.31707 -37.65157 39518 ft 446 kts 264°
2026-05-04 16:50 45.30633 -37.73782 39764 ft 447 kts 264°
2026-05-04 16:51 45.29544 -37.82480 40024 ft 447 kts 264°
2026-05-04 16:51 45.28997 -37.86821 40150 ft 447 kts 264°
2026-05-04 16:51 45.27897 -37.95527 40303 ft 450 kts 264°
2026-05-04 16:52 45.26784 -38.04265 40300 ft 448 kts 263°
2026-05-04 16:53 45.25115 -38.17273 40296 ft 444 kts 263°
2026-05-04 16:54 45.22896 -38.34383 40293 ft 441 kts 263°
2026-05-04 16:55 45.19507 -38.60123 40285 ft 443 kts 262°
2026-05-04 16:56 45.16659 -38.81393 40279 ft 438 kts 262°
2026-05-04 16:57 45.14931 -38.94148 40274 ft 440 kts 262°
2026-05-04 16:58 45.12604 -39.11147 40267 ft 438 kts 261°
2026-05-04 17:00 45.09090 -39.36458 40264 ft 437 kts 261°
2026-05-04 17:01 45.06130 -39.57443 40253 ft 434 kts 261°
2026-05-04 17:02 45.03731 -39.74243 40249 ft 436 kts 260°
2026-05-04 17:03 45.01910 -39.86872 40240 ft 437 kts 260°
2026-05-04 17:03 45.00093 -39.99483 40244 ft 435 kts 263°
2026-05-04 17:04 44.99081 -40.16484 40243 ft 435 kts 266°
2026-05-04 17:05 44.98104 -40.33550 40227 ft 437 kts 265°
2026-05-04 17:06 44.97353 -40.46373 40224 ft 438 kts 265°
2026-05-04 17:07 44.96672 -40.57783 40215 ft 437 kts 265°
2026-05-04 17:07 44.96068 -40.67763 40217 ft 437 kts 265°
2026-05-04 17:08 44.95275 -40.80616 40207 ft 440 kts 265°
2026-05-04 17:09 44.94736 -40.89235 40206 ft 441 kts 265°
2026-05-04 17:09 44.94192 -40.97834 40203 ft 439 kts 264°
2026-05-04 17:10 44.92812 -41.19180 40180 ft 436 kts 264°
2026-05-04 17:11 44.92249 -41.27700 40176 ft 436 kts 264°
2026-05-04 17:12 44.91394 -41.40478 40186 ft 435 kts 264°
2026-05-04 17:13 44.89941 -41.61709 40179 ft 436 kts 264°
2026-05-04 17:14 44.88751 -41.78676 40168 ft 434 kts 263°
2026-05-04 17:15 44.87842 -41.91392 40165 ft 434 kts 263°
2026-05-04 17:16 44.86614 -42.08272 40155 ft 435 kts 263°
2026-05-04 17:17 44.85354 -42.25238 40151 ft 435 kts 263°
2026-05-04 17:18 44.84067 -42.42213 40146 ft 436 kts 263°
2026-05-04 17:19 44.82759 -42.59140 40130 ft 435 kts 262°
2026-05-04 17:20 44.81429 -42.76001 40121 ft 432 kts 262°
2026-05-04 17:20 44.80416 -42.88643 40120 ft 434 kts 262°
2026-05-04 17:21 44.79043 -43.05500 40108 ft 433 kts 262°
2026-05-04 17:22 44.78349 -43.13906 40103 ft 431 kts 262°
2026-05-04 17:23 44.76946 -43.30664 40103 ft 432 kts 262°
2026-05-04 17:24 44.75875 -43.43256 40089 ft 431 kts 261°
2026-05-04 17:25 44.74554 -43.58558 40085 ft 429 kts 261°
2026-05-04 17:26 44.73088 -43.75273 40076 ft 431 kts 261°
2026-05-04 17:27 44.71217 -43.96198 40059 ft 428 kts 261°
2026-05-04 17:28 44.69713 -44.12702 40056 ft 427 kts 260°
2026-05-04 17:29 44.67406 -44.37516 40034 ft 426 kts 260°
2026-05-04 17:31 44.65453 -44.58064 40018 ft 426 kts 260°
2026-05-04 17:32 44.63448 -44.78762 40017 ft 429 kts 259°
2026-05-04 17:33 44.61836 -44.95118 39978 ft 422 kts 259°
2026-05-04 17:34 44.60199 -45.11477 39976 ft 424 kts 259°
2026-05-04 17:35 44.58120 -45.31923 39969 ft 421 kts 259°
2026-05-04 17:36 44.57280 -45.40074 39967 ft 423 kts 258°
2026-05-04 17:36 44.56439 -45.48183 39963 ft 423 kts 258°
2026-05-04 17:37 44.55583 -45.56368 39961 ft 424 kts 258°
2026-05-04 17:37 44.54722 -45.64555 39963 ft 424 kts 258°
2026-05-04 17:38 44.53856 -45.72729 39955 ft 421 kts 258°
2026-05-04 17:38 44.52989 -45.80841 39954 ft 420 kts 258°
2026-05-04 17:39 44.51688 -45.92929 39956 ft 420 kts 258°
2026-05-04 17:39 44.50809 -46.01030 39985 ft 421 kts 258°
2026-05-04 17:40 44.49919 -46.09171 39960 ft 423 kts 258°
2026-05-04 17:40 44.49022 -46.17323 39953 ft 421 kts 258°
2026-05-04 17:41 44.48127 -46.25398 39950 ft 418 kts 258°
2026-05-04 17:41 44.47232 -46.33419 39954 ft 419 kts 258°
2026-05-04 17:42 44.46327 -46.41480 39954 ft 420 kts 258°
2026-05-04 17:42 44.45412 -46.49575 39960 ft 421 kts 258°
2026-05-04 17:43 44.44492 -46.57668 39962 ft 421 kts 257°
2026-05-04 17:43 44.43570 -46.65721 39968 ft 421 kts 257°
2026-05-04 17:44 44.42632 -46.73860 39965 ft 423 kts 257°
2026-05-04 17:44 44.41692 -46.81970 39969 ft 422 kts 257°
2026-05-04 17:45 44.40747 -46.90059 39968 ft 421 kts 257°
2026-05-04 17:45 44.39799 -46.98131 39966 ft 420 kts 257°
2026-05-04 17:46 44.38849 -47.06170 39973 ft 417 kts 257°
2026-05-04 17:46 44.37894 -47.14191 39973 ft 418 kts 257°
2026-05-04 17:47 44.36940 -47.22166 39979 ft 420 kts 257°
2026-05-04 17:47 44.35969 -47.30228 39982 ft 421 kts 257°
2026-05-04 17:48 44.34988 -47.38325 39982 ft 423 kts 257°
2026-05-04 17:48 44.34002 -47.46414 39977 ft 421 kts 257°
2026-05-04 17:49 44.33017 -47.54446 39975 ft 418 kts 257°
2026-05-04 17:49 44.32029 -47.62445 39972 ft 418 kts 256°
2026-05-04 17:50 44.31042 -47.70402 39973 ft 419 kts 256°
2026-05-04 17:50 44.30038 -47.78441 39975 ft 420 kts 256°
2026-05-04 17:51 44.29028 -47.86481 39994 ft 421 kts 256°
2026-05-04 17:51 44.28014 -47.94511 39980 ft 417 kts 256°
2026-05-04 17:52 44.26998 -48.02496 39978 ft 419 kts 256°
2026-05-04 17:52 44.25981 -48.10453 39977 ft 420 kts 256°
2026-05-04 17:53 44.24949 -48.18478 39976 ft 420 kts 256°
2026-05-04 17:53 44.23912 -48.26498 39983 ft 420 kts 256°
2026-05-04 17:54 44.22870 -48.34511 39981 ft 418 kts 256°
2026-05-04 17:54 44.21828 -48.42469 39979 ft 416 kts 256°
2026-05-04 17:55 44.20785 -48.50395 39977 ft 416 kts 256°
2026-05-04 17:55 44.19743 -48.58273 39977 ft 416 kts 256°
2026-05-04 17:56 44.18686 -48.66214 39985 ft 418 kts 256°
2026-05-04 17:56 44.17617 -48.74209 39989 ft 420 kts 256°
2026-05-04 17:57 44.16544 -48.82187 39983 ft 418 kts 256°
2026-05-04 17:57 44.15469 -48.90130 39982 ft 417 kts 256°
2026-05-04 17:58 44.14396 -48.98017 39984 ft 417 kts 256°
2026-05-04 17:58 44.13313 -49.05936 39984 ft 417 kts 255°
2026-05-04 17:59 44.12223 -49.13864 39982 ft 416 kts 255°
2026-05-04 18:00 44.10579 -49.25745 39984 ft 417 kts 255°
2026-05-04 18:00 44.09475 -49.33666 39985 ft 417 kts 255°
2026-05-04 18:01 44.08373 -49.41531 39983 ft 417 kts 255°
2026-05-04 18:01 44.07259 -49.49448 39984 ft 417 kts 255°
2026-05-04 18:02 44.05575 -49.61325 39985 ft 416 kts 255°
2026-05-04 18:02 44.04451 -49.69205 39984 ft 414 kts 255°
2026-05-04 18:03 44.03325 -49.77053 39982 ft 413 kts 255°
2026-05-04 18:03 44.02199 -49.84861 39983 ft 415 kts 255°
2026-05-04 18:04 44.01057 -49.92744 39981 ft 419 kts 255°
2026-05-04 18:05 43.98893 -50.04515 39985 ft 418 kts 249°
2026-05-04 18:05 43.97036 -50.12150 39990 ft 416 kts 249°
2026-05-04 18:06 43.94250 -50.23484 39990 ft 415 kts 249°
2026-05-04 18:06 43.92381 -50.31072 39991 ft 415 kts 249°
2026-05-04 18:07 43.90508 -50.38642 39989 ft 415 kts 249°
2026-05-04 18:07 43.88631 -50.46211 39985 ft 414 kts 249°
2026-05-04 18:08 43.86756 -50.53741 39982 ft 413 kts 249°
2026-05-04 18:08 43.84871 -50.61288 39982 ft 414 kts 249°
2026-05-04 18:09 43.81082 -50.76384 39987 ft 420 kts 249°
2026-05-04 18:10 43.79154 -50.84033 39989 ft 421 kts 249°
2026-05-04 18:10 43.77221 -50.91670 39985 ft 420 kts 249°
2026-05-04 18:11 43.75284 -50.99302 39988 ft 420 kts 248°
2026-05-04 18:11 43.73343 -51.06924 39988 ft 420 kts 248°
2026-05-04 18:12 43.71401 -51.14525 39984 ft 416 kts 249°
2026-05-04 18:12 43.69797 -51.20783 39976 ft 415 kts 248°
2026-05-04 18:13 43.67552 -51.29515 39976 ft 415 kts 248°
2026-05-04 18:14 43.64644 -51.40778 39976 ft 415 kts 248°
2026-05-04 18:14 43.63015 -51.47066 39980 ft 415 kts 248°
2026-05-04 18:15 43.59102 -51.62098 39984 ft 420 kts 248°
2026-05-04 18:16 43.57114 -51.69697 39988 ft 420 kts 248°
2026-05-04 18:16 43.55126 -51.77275 39988 ft 420 kts 248°
2026-05-04 18:17 43.52151 -51.88568 39982 ft 415 kts 248°
2026-05-04 18:18 43.49185 -51.99773 39982 ft 415 kts 248°
2026-05-04 18:18 43.47203 -52.07232 39981 ft 415 kts 248°
2026-05-04 18:19 43.44236 -52.18356 39976 ft 413 kts 248°
2026-05-04 18:19 43.42253 -52.25762 39977 ft 412 kts 248°
2026-05-04 18:20 43.40259 -52.33186 39985 ft 416 kts 248°
2026-05-04 18:20 43.38244 -52.40665 39993 ft 418 kts 248°
2026-05-04 18:21 43.36233 -52.48109 39983 ft 417 kts 248°
2026-05-04 18:21 43.34214 -52.55556 39981 ft 413 kts 248°
2026-05-04 18:22 43.32211 -52.62925 39981 ft 411 kts 248°
2026-05-04 18:22 43.30202 -52.70290 39982 ft 411 kts 248°
2026-05-04 18:23 43.28189 -52.77651 39980 ft 412 kts 248°
2026-05-04 18:23 43.26182 -52.84966 39971 ft 411 kts 248°
2026-05-04 18:24 43.24175 -52.92262 39974 ft 407 kts 248°
2026-05-04 18:24 43.22169 -52.99528 39976 ft 408 kts 248°
2026-05-04 18:25 43.20156 -53.06803 39984 ft 409 kts 248°
2026-05-04 18:25 43.18117 -53.14145 39988 ft 414 kts 248°
2026-05-04 18:26 43.16064 -53.21517 39976 ft 412 kts 248°
2026-05-04 18:26 43.14043 -53.28755 39978 ft 408 kts 248°
2026-05-04 18:27 43.12012 -53.36008 39974 ft 408 kts 248°
2026-05-04 18:27 43.09973 -53.43268 39974 ft 409 kts 248°
2026-05-04 18:28 43.07922 -53.50545 39980 ft 409 kts 248°
2026-05-04 18:28 43.05871 -53.57803 39993 ft 408 kts 248°
2026-05-04 18:29 43.03832 -53.65002 39988 ft 405 kts 248°
2026-05-04 18:29 43.01790 -53.72187 39979 ft 406 kts 248°
2026-05-04 18:30 42.98722 -53.82945 40006 ft 408 kts 248°
2026-05-04 18:31 42.96643 -53.90205 39999 ft 411 kts 248°
2026-05-04 18:31 42.94560 -53.97465 39993 ft 410 kts 248°
2026-05-04 18:32 42.92474 -54.04710 39993 ft 409 kts 248°
2026-05-04 18:32 42.90391 -54.11926 39994 ft 408 kts 248°
2026-05-04 18:33 42.88309 -54.19118 39998 ft 408 kts 248°
2026-05-04 18:33 42.86236 -54.26257 39997 ft 407 kts 248°
2026-05-04 18:34 42.84146 -54.33436 39995 ft 408 kts 248°
2026-05-04 18:34 42.82043 -54.40636 39999 ft 409 kts 248°
2026-05-04 18:35 42.79930 -54.47856 39998 ft 411 kts 248°
2026-05-04 18:35 42.77805 -54.55088 39993 ft 411 kts 248°
2026-05-04 18:36 42.75689 -54.62277 39997 ft 409 kts 248°
2026-05-04 18:36 42.73576 -54.69432 40006 ft 410 kts 248°
2026-05-04 18:37 42.71443 -54.76636 40000 ft 410 kts 248°
2026-05-04 18:37 42.69303 -54.83843 40003 ft 411 kts 248°
2026-05-04 18:38 42.67163 -54.91029 39994 ft 408 kts 248°
2026-05-04 18:38 42.65051 -54.98103 39991 ft 405 kts 248°
2026-05-04 18:39 42.62926 -55.05199 39991 ft 405 kts 248°
2026-05-04 18:39 42.60798 -55.12287 39994 ft 405 kts 248°
2026-05-04 18:40 42.58664 -55.19376 39976 ft 405 kts 248°
2026-05-04 18:40 42.56533 -55.26433 39996 ft 402 kts 248°
2026-05-04 18:41 42.54410 -55.33448 40015 ft 404 kts 247°
2026-05-04 18:41 42.52271 -55.40494 40017 ft 408 kts 247°
2026-05-04 18:42 42.50102 -55.47620 40015 ft 409 kts 247°
2026-05-04 18:42 42.47928 -55.54744 39999 ft 408 kts 248°
2026-05-04 18:43 42.45768 -55.61803 40004 ft 403 kts 248°
2026-05-04 18:43 42.43618 -55.68811 40002 ft 403 kts 247°
2026-05-04 18:44 42.41462 -55.75818 40006 ft 403 kts 247°
2026-05-04 18:44 42.39300 -55.82826 40010 ft 404 kts 247°
2026-05-04 18:45 42.37144 -55.89799 40012 ft 401 kts 247°
2026-05-04 18:45 42.34991 -55.96740 40010 ft 400 kts 247°
2026-05-04 18:46 42.32832 -56.03684 40015 ft 401 kts 247°
2026-05-04 18:46 42.30652 -56.10677 40035 ft 405 kts 247°
2026-05-04 18:47 42.28465 -56.17674 40020 ft 406 kts 247°
2026-05-04 18:47 42.26271 -56.24673 40026 ft 403 kts 247°
2026-05-04 18:48 42.24088 -56.31624 40023 ft 402 kts 247°
2026-05-04 18:48 42.21903 -56.38558 40027 ft 402 kts 247°
2026-05-04 18:49 42.19712 -56.45494 40024 ft 402 kts 247°
2026-05-04 18:49 42.17518 -56.52422 40023 ft 400 kts 247°
2026-05-04 18:50 42.15338 -56.59289 40026 ft 398 kts 247°
2026-05-04 18:50 42.13156 -56.66144 40026 ft 398 kts 247°
2026-05-04 18:51 42.10984 -56.72949 40025 ft 398 kts 247°
2026-05-04 18:51 42.08792 -56.79801 40032 ft 398 kts 247°
2026-05-04 18:52 42.06602 -56.86629 40034 ft 396 kts 247°
2026-05-04 18:52 42.04419 -56.93418 40032 ft 395 kts 246°
2026-05-04 18:53 42.02234 -57.00197 40036 ft 396 kts 246°
2026-05-04 18:53 42.00035 -57.06998 40037 ft 396 kts 246°
2026-05-04 18:54 41.97831 -57.13801 40027 ft 397 kts 246°
2026-05-04 18:54 41.95639 -57.20549 40041 ft 391 kts 246°
2026-05-04 18:55 41.93472 -57.27206 40037 ft 391 kts 246°
2026-05-04 18:55 41.90188 -57.37259 40037 ft 392 kts 246°
2026-05-04 18:56 41.87992 -57.43961 40045 ft 392 kts 246°
2026-05-04 18:56 41.85797 -57.50644 40057 ft 397 kts 246°
2026-05-04 18:57 41.83561 -57.57436 40059 ft 399 kts 246°
2026-05-04 18:57 41.81314 -57.64244 40060 ft 399 kts 246°
2026-05-04 18:58 41.79064 -57.71044 40060 ft 398 kts 246°
2026-05-04 18:58 41.76815 -57.77824 40047 ft 396 kts 246°
2026-05-04 18:59 41.74606 -57.84468 40044 ft 392 kts 246°
2026-05-04 18:59 41.72384 -57.91135 40042 ft 392 kts 246°
2026-05-04 19:00 41.70153 -57.97809 40050 ft 393 kts 246°
2026-05-04 19:00 41.67917 -58.04487 40052 ft 393 kts 246°
2026-05-04 19:01 41.65684 -58.11136 40046 ft 389 kts 246°
2026-05-04 19:01 41.63483 -58.17677 40075 ft 389 kts 246°
2026-05-04 19:02 41.61243 -58.24314 40060 ft 394 kts 246°
2026-05-04 19:02 41.59343 -58.29935 40062 ft 397 kts 246°
2026-05-04 19:03 41.57079 -58.36615 40062 ft 397 kts 246°
2026-05-04 19:03 41.54810 -58.43295 40055 ft 392 kts 246°
2026-05-04 19:04 41.52554 -58.49922 40055 ft 391 kts 245°
2026-05-04 19:04 41.50295 -58.56540 40058 ft 392 kts 245°
2026-05-04 19:05 41.48042 -58.63124 40057 ft 392 kts 245°
2026-05-04 19:05 41.45760 -58.69778 40060 ft 390 kts 245°
2026-05-04 19:06 41.43530 -58.76265 40062 ft 386 kts 245°
2026-05-04 19:06 41.41289 -58.82770 40060 ft 387 kts 245°
2026-05-04 19:07 41.39034 -58.89302 40077 ft 391 kts 245°
2026-05-04 19:07 41.36746 -58.95909 40077 ft 394 kts 245°
2026-05-04 19:08 41.34452 -59.02523 40061 ft 390 kts 245°
2026-05-04 19:08 41.32181 -59.09052 40060 ft 388 kts 245°
2026-05-04 19:09 41.29908 -59.15572 40062 ft 389 kts 245°
2026-05-04 19:09 41.27630 -59.22092 40067 ft 389 kts 245°
2026-05-04 19:10 41.25346 -59.28613 40056 ft 389 kts 245°
2026-05-04 19:10 41.23073 -59.35088 40068 ft 385 kts 245°
2026-05-04 19:11 41.20821 -59.41491 40061 ft 385 kts 245°
2026-05-04 19:11 41.18550 -59.47930 40066 ft 385 kts 245°
2026-05-04 19:12 41.15123 -59.57622 40058 ft 389 kts 245°
2026-05-04 19:13 41.12817 -59.64125 40070 ft 388 kts 245°
2026-05-04 19:13 41.10519 -59.70591 40068 ft 388 kts 245°
2026-05-04 19:14 41.08232 -59.77009 40072 ft 388 kts 245°
2026-05-04 19:14 41.05926 -59.83469 40075 ft 388 kts 245°
2026-05-04 19:15 41.03613 -59.89930 40072 ft 386 kts 245°
2026-05-04 19:15 41.01319 -59.96328 40071 ft 384 kts 245°
2026-05-04 19:16 40.98804 -60.02561 40081 ft 384 kts 240°
2026-05-04 19:16 40.96010 -60.08576 40082 ft 386 kts 240°
2026-05-04 19:17 40.93181 -60.14639 40076 ft 388 kts 240°
2026-05-04 19:17 40.90368 -60.20659 40074 ft 383 kts 240°
2026-05-04 19:18 40.87548 -60.26682 40076 ft 386 kts 240°
2026-05-04 19:18 40.84732 -60.32685 40075 ft 387 kts 240°
2026-05-04 19:19 40.81895 -60.38720 40085 ft 387 kts 239°
2026-05-04 19:19 40.79054 -60.44751 40083 ft 387 kts 239°
2026-05-04 19:20 40.76193 -60.50816 40097 ft 391 kts 239°
2026-05-04 19:20 40.73305 -60.56922 40094 ft 393 kts 239°
2026-05-04 19:21 40.70408 -60.63036 40096 ft 393 kts 239°
2026-05-04 19:21 40.67532 -60.69067 40081 ft 386 kts 239°
2026-05-04 19:22 40.64699 -60.75008 40089 ft 383 kts 240°
2026-05-04 19:22 40.61869 -60.81010 40094 ft 388 kts 239°
2026-05-04 19:23 40.58967 -60.87056 40099 ft 392 kts 239°
2026-05-04 19:23 40.56070 -60.93124 40086 ft 388 kts 239°
2026-05-04 19:24 40.53221 -60.99061 40082 ft 382 kts 239°
2026-05-04 19:24 40.50401 -61.04938 40117 ft 383 kts 239°
2026-05-04 19:25 40.47528 -61.10907 40097 ft 389 kts 239°
2026-05-04 19:25 40.44621 -61.16936 40082 ft 390 kts 239°
2026-05-04 19:26 40.41743 -61.22893 40088 ft 383 kts 239°
2026-05-04 19:26 40.38889 -61.28791 40089 ft 383 kts 239°
2026-05-04 19:27 40.36023 -61.34702 40109 ft 385 kts 239°
2026-05-04 19:27 40.33143 -61.40630 40104 ft 389 kts 239°
2026-05-04 19:28 40.30236 -61.46599 40091 ft 384 kts 239°
2026-05-04 19:28 40.27371 -61.52477 40090 ft 383 kts 239°
2026-05-04 19:29 40.24499 -61.58355 40090 ft 384 kts 239°
2026-05-04 19:29 40.21610 -61.64255 40094 ft 385 kts 239°
2026-05-04 19:30 40.18740 -61.70107 40097 ft 382 kts 239°
2026-05-04 19:30 40.15904 -61.75879 40098 ft 375 kts 239°
2026-05-04 19:31 40.13074 -61.81628 40101 ft 376 kts 239°
2026-05-04 19:31 40.10231 -61.87392 40103 ft 378 kts 239°
2026-05-04 19:32 40.07376 -61.93173 40132 ft 379 kts 238°
2026-05-04 19:32 40.04514 -61.98950 40104 ft 376 kts 238°
2026-05-04 19:33 40.01696 -62.04637 40105 ft 376 kts 238°
2026-05-04 19:33 39.98842 -62.10379 40110 ft 377 kts 238°
2026-05-04 19:34 39.95983 -62.16124 40111 ft 378 kts 238°
2026-05-04 19:34 39.93116 -62.21872 40117 ft 375 kts 238°
2026-05-04 19:35 39.90280 -62.27552 40118 ft 375 kts 238°
2026-05-04 19:35 39.87444 -62.33218 40118 ft 377 kts 238°
2026-05-04 19:36 39.84574 -62.38943 40121 ft 377 kts 238°
2026-05-04 19:36 39.81699 -62.44668 40121 ft 378 kts 238°
2026-05-04 19:37 39.78839 -62.50349 40118 ft 371 kts 238°
2026-05-04 19:37 39.76021 -62.55918 40122 ft 370 kts 238°
2026-05-04 19:38 39.73192 -62.61547 40123 ft 374 kts 238°
2026-05-04 19:38 39.70316 -62.67229 40130 ft 377 kts 238°
2026-05-04 19:39 39.67426 -62.72932 40122 ft 378 kts 238°
2026-05-04 19:39 39.64565 -62.78568 40122 ft 370 kts 238°
2026-05-04 19:40 39.61753 -62.84098 40131 ft 370 kts 238°
2026-05-04 19:40 39.58894 -62.89702 40129 ft 375 kts 238°
2026-05-04 19:41 39.56004 -62.95375 40135 ft 379 kts 238°
2026-05-04 19:41 39.53081 -63.01086 40139 ft 380 kts 238°
2026-05-04 19:42 39.50156 -63.06800 40139 ft 380 kts 238°
2026-05-04 19:42 39.47250 -63.12461 40141 ft 379 kts 237°
2026-05-04 19:43 39.44295 -63.18160 40145 ft 383 kts 237°
2026-05-04 19:43 39.41350 -63.23940 40146 ft 387 kts 237°
2026-05-04 19:44 39.38372 -63.29696 40138 ft 380 kts 237°
2026-05-04 19:44 39.35457 -63.35343 40133 ft 377 kts 237°
2026-05-04 19:45 39.32535 -63.40986 40135 ft 379 kts 237°
2026-05-04 19:45 39.29589 -63.46645 40148 ft 382 kts 237°
2026-05-04 19:46 39.26636 -63.52357 40122 ft 386 kts 237°
2026-05-04 19:46 39.23643 -63.58096 40140 ft 383 kts 237°
2026-05-04 19:47 39.20674 -63.63794 40142 ft 382 kts 237°
2026-05-04 19:47 39.17703 -63.69481 40141 ft 382 kts 237°
2026-05-04 19:48 39.14747 -63.75130 40157 ft 383 kts 237°
2026-05-04 19:48 39.11747 -63.80852 40149 ft 386 kts 237°
2026-05-04 19:49 39.08754 -63.86552 40146 ft 383 kts 237°
2026-05-04 19:49 39.05763 -63.92236 40149 ft 383 kts 237°
2026-05-04 19:50 39.02790 -63.97877 40148 ft 383 kts 237°
2026-05-04 19:50 38.99793 -64.03553 40151 ft 383 kts 237°
2026-05-04 19:51 38.96787 -64.09223 40153 ft 384 kts 236°
2026-05-04 19:51 38.93792 -64.14895 40156 ft 385 kts 236°
2026-05-04 19:52 38.90767 -64.20588 40159 ft 387 kts 236°
2026-05-04 19:52 38.87728 -64.26307 40163 ft 388 kts 236°
2026-05-04 19:53 38.85197 -64.31058 40163 ft 387 kts 236°
2026-05-04 19:53 38.82173 -64.36727 40175 ft 380 kts 236°
2026-05-04 19:54 38.79173 -64.42314 40155 ft 382 kts 236°
2026-05-04 19:54 38.76160 -64.47983 40163 ft 387 kts 236°
2026-05-04 19:55 38.73097 -64.53677 40167 ft 389 kts 236°
2026-05-04 19:55 38.70031 -64.59393 40172 ft 389 kts 236°
2026-05-04 19:56 38.66968 -64.65051 40161 ft 381 kts 236°
2026-05-04 19:56 38.63988 -64.70570 40163 ft 379 kts 236°
2026-05-04 19:57 38.61000 -64.76164 40162 ft 382 kts 236°
2026-05-04 19:57 38.57956 -64.81763 40167 ft 384 kts 236°
2026-05-04 19:58 38.54924 -64.87371 40168 ft 382 kts 236°
2026-05-04 19:58 38.51926 -64.92845 40168 ft 368 kts 235°
2026-05-04 19:59 38.49053 -64.98181 40199 ft 368 kts 236°
2026-05-04 19:59 38.46056 -65.03554 40172 ft 374 kts 235°
2026-05-04 20:00 38.43048 -65.09047 40173 ft 380 kts 235°
2026-05-04 20:00 38.39970 -65.14591 40178 ft 384 kts 235°
2026-05-04 20:01 38.36912 -65.20090 40167 ft 375 kts 235°
2026-05-04 20:01 38.33917 -65.25516 40166 ft 375 kts 235°
2026-05-04 20:02 38.30910 -65.30910 40187 ft 377 kts 235°
2026-05-04 20:02 38.27850 -65.36403 40170 ft 383 kts 235°
2026-05-04 20:03 38.24745 -65.41971 40174 ft 388 kts 235°
2026-05-04 20:03 38.21633 -65.47535 40158 ft 380 kts 235°
2026-05-04 20:04 38.18581 -65.52987 40157 ft 378 kts 235°
2026-05-04 20:04 38.15520 -65.58445 40160 ft 380 kts 235°
2026-05-04 20:05 38.12431 -65.63932 40173 ft 384 kts 235°
2026-05-04 20:05 38.09332 -65.69452 40171 ft 389 kts 235°
2026-05-04 20:06 38.06173 -65.75054 40176 ft 391 kts 235°
2026-05-04 20:06 38.03002 -65.80669 40175 ft 392 kts 235°
2026-05-04 20:07 37.99828 -65.86281 40174 ft 391 kts 235°
2026-05-04 20:07 37.96658 -65.91875 40176 ft 391 kts 235°
2026-05-04 20:08 37.93456 -65.97481 40167 ft 394 kts 234°
2026-05-04 20:08 37.90285 -66.03098 40159 ft 389 kts 235°
2026-05-04 20:09 37.87121 -66.08654 40156 ft 390 kts 234°
2026-05-04 20:09 37.83941 -66.14222 40161 ft 391 kts 235°
2026-05-04 20:10 37.80756 -66.19803 40165 ft 391 kts 235°
2026-05-04 20:10 37.77579 -66.25349 40202 ft 392 kts 235°
2026-05-04 20:11 37.74360 -66.30965 40168 ft 396 kts 235°
2026-05-04 20:11 37.71120 -66.36606 40173 ft 397 kts 235°
2026-05-04 20:12 37.67873 -66.42251 40174 ft 397 kts 234°
2026-05-04 20:12 37.64624 -66.47888 40172 ft 397 kts 234°
2026-05-04 20:13 37.61374 -66.53519 40135 ft 397 kts 234°
2026-05-04 20:13 37.58160 -66.59075 40174 ft 390 kts 234°
2026-05-04 20:14 37.54946 -66.64626 40175 ft 395 kts 234°
2026-05-04 20:14 37.51703 -66.70215 40179 ft 398 kts 234°
2026-05-04 20:15 37.48431 -66.75846 40185 ft 398 kts 234°
2026-05-04 20:15 37.45150 -66.81481 40143 ft 398 kts 234°
2026-05-04 20:16 37.41910 -66.87037 40166 ft 389 kts 234°
2026-05-04 20:16 37.38724 -66.92491 40172 ft 391 kts 234°
2026-05-04 20:17 37.35473 -66.98046 40172 ft 397 kts 234°
2026-05-04 20:17 37.32187 -67.03653 40176 ft 400 kts 234°
2026-05-04 20:18 37.28877 -67.09291 40181 ft 401 kts 234°
2026-05-04 20:18 37.25595 -67.14871 40180 ft 394 kts 234°
2026-05-04 20:19 37.22345 -67.20389 40174 ft 393 kts 234°
2026-05-04 20:19 37.19072 -67.25926 40181 ft 397 kts 235°
2026-05-04 20:20 37.15783 -67.31477 40175 ft 401 kts 235°
2026-05-04 20:20 37.12456 -67.37132 40178 ft 405 kts 234°
2026-05-04 20:21 37.09114 -67.42751 40173 ft 398 kts 234°
2026-05-04 20:21 37.04164 -67.51088 40174 ft 398 kts 234°
2026-05-04 20:22 37.00848 -67.56653 40176 ft 400 kts 234°
2026-05-04 20:22 36.97497 -67.62274 40174 ft 405 kts 234°
2026-05-04 20:23 36.94138 -67.67895 40177 ft 404 kts 234°
2026-05-04 20:23 36.90802 -67.73469 40172 ft 398 kts 234°
2026-05-04 20:24 36.87482 -67.79009 40174 ft 399 kts 234°
2026-05-04 20:24 36.84144 -67.84567 40175 ft 400 kts 234°
2026-05-04 20:25 36.80800 -67.90128 40174 ft 400 kts 234°
2026-05-04 20:25 36.77468 -67.95659 40168 ft 400 kts 234°
2026-05-04 20:26 36.74155 -68.01148 40170 ft 393 kts 234°
2026-05-04 20:26 36.70864 -68.06595 40168 ft 393 kts 234°
2026-05-04 20:27 36.67578 -68.12023 40166 ft 394 kts 234°
2026-05-04 20:27 36.64263 -68.17490 40168 ft 395 kts 234°
2026-05-04 20:28 36.60931 -68.22976 40177 ft 399 kts 234°
2026-05-04 20:28 36.57595 -68.28460 40171 ft 394 kts 234°
2026-05-04 20:29 36.54290 -68.33885 40168 ft 394 kts 234°
2026-05-04 20:29 36.50996 -68.39282 40168 ft 395 kts 234°
2026-05-04 20:30 36.47668 -68.44724 40172 ft 395 kts 234°
2026-05-04 20:30 36.44335 -68.50168 40173 ft 396 kts 234°
2026-05-04 20:31 36.40995 -68.55614 40179 ft 398 kts 234°
2026-05-04 20:31 36.37609 -68.61127 40181 ft 402 kts 234°
2026-05-04 20:32 36.34231 -68.66615 40186 ft 403 kts 234°
2026-05-04 20:32 36.30828 -68.72138 40189 ft 403 kts 234°
2026-05-04 20:33 36.27420 -68.77659 40181 ft 403 kts 234°
2026-05-04 20:33 36.24012 -68.83155 40170 ft 398 kts 234°
2026-05-04 20:34 36.20694 -68.88520 40179 ft 395 kts 235°
2026-05-04 20:34 36.17326 -68.93967 40178 ft 400 kts 234°
2026-05-04 20:35 36.13914 -68.99448 40184 ft 403 kts 234°
2026-05-04 20:35 36.10495 -69.04948 40184 ft 403 kts 234°
2026-05-04 20:36 36.07078 -69.10428 40165 ft 401 kts 234°
2026-05-04 20:36 36.03700 -69.15841 40169 ft 395 kts 234°
2026-05-04 20:37 36.00358 -69.21186 40179 ft 397 kts 234°
2026-05-04 20:37 35.96962 -69.26611 40182 ft 401 kts 234°
2026-05-04 20:38 35.93537 -69.32070 40187 ft 402 kts 234°
2026-05-04 20:38 35.90100 -69.37543 40185 ft 402 kts 234°
2026-05-04 20:39 35.87258 -69.42060 40172 ft 399 kts 234°
2026-05-04 20:39 35.83854 -69.47463 40169 ft 398 kts 234°
2026-05-04 20:40 35.80457 -69.52847 40200 ft 398 kts 234°
2026-05-04 20:40 35.77039 -69.58256 40181 ft 402 kts 234°
2026-05-04 20:41 35.73584 -69.63715 40182 ft 404 kts 234°
2026-05-04 20:41 35.70147 -69.69136 40180 ft 403 kts 234°
2026-05-04 20:42 35.66715 -69.74539 40179 ft 399 kts 234°
2026-05-04 20:42 35.63302 -69.79907 40175 ft 399 kts 234°
2026-05-04 20:43 35.59881 -69.85278 40173 ft 399 kts 234°
2026-05-04 20:43 35.56443 -69.90667 40177 ft 403 kts 234°
2026-05-04 20:44 35.52994 -69.96066 40178 ft 405 kts 234°
2026-05-04 20:44 35.49523 -70.01489 40177 ft 402 kts 234°
2026-05-04 20:45 35.46070 -70.06877 40176 ft 401 kts 234°
2026-05-04 20:45 35.42617 -70.12257 40179 ft 401 kts 234°
2026-05-04 20:46 35.39167 -70.17624 40175 ft 401 kts 234°
2026-05-04 20:46 35.35704 -70.23001 40171 ft 403 kts 234°
2026-05-04 20:47 35.32210 -70.28420 40168 ft 405 kts 234°
2026-05-04 20:47 35.28723 -70.33818 40172 ft 403 kts 234°
2026-05-04 20:48 35.25271 -70.39155 40168 ft 402 kts 234°
2026-05-04 20:48 35.21787 -70.44531 40171 ft 403 kts 234°
2026-05-04 20:49 35.18289 -70.49923 40173 ft 405 kts 234°
2026-05-04 20:49 35.14796 -70.55297 40140 ft 407 kts 234°
2026-05-04 20:50 35.11273 -70.60710 40173 ft 406 kts 234°
2026-05-04 20:50 35.07753 -70.66110 40172 ft 406 kts 234°
2026-05-04 20:51 35.04236 -70.71496 40172 ft 405 kts 233°
2026-05-04 20:51 35.00741 -70.76841 40168 ft 405 kts 233°
2026-05-04 20:52 34.97224 -70.82212 40170 ft 404 kts 233°
2026-05-04 20:52 34.93713 -70.87565 40170 ft 403 kts 233°
2026-05-04 20:53 34.90191 -70.92926 40173 ft 407 kts 234°
2026-05-04 20:53 34.86641 -70.98322 40176 ft 408 kts 234°
2026-05-04 20:54 34.83095 -71.03702 40179 ft 409 kts 234°
2026-05-04 20:54 34.79532 -71.09101 40179 ft 409 kts 234°
2026-05-04 20:55 34.75963 -71.14502 40182 ft 409 kts 234°
2026-05-04 20:55 34.72426 -71.19845 40166 ft 407 kts 233°
2026-05-04 20:56 34.68882 -71.25190 40165 ft 405 kts 233°
2026-05-04 20:56 34.65338 -71.30529 40163 ft 404 kts 233°
2026-05-04 20:57 34.61795 -71.35855 40162 ft 406 kts 233°
2026-05-04 20:57 34.58241 -71.41191 40165 ft 407 kts 233°
2026-05-04 20:58 34.54667 -71.46548 40167 ft 408 kts 233°
2026-05-04 20:58 34.51111 -71.51870 40169 ft 408 kts 233°
2026-05-04 20:59 34.47533 -71.57217 40175 ft 408 kts 233°
2026-05-04 20:59 34.43946 -71.62571 40174 ft 410 kts 233°
2026-05-04 21:00 34.40342 -71.67940 40175 ft 411 kts 233°
2026-05-04 21:00 34.36734 -71.73307 40176 ft 410 kts 233°
2026-05-04 21:01 34.33158 -71.78620 40169 ft 408 kts 233°
2026-05-04 21:01 34.29566 -71.83948 40168 ft 408 kts 233°
2026-05-04 21:02 34.25978 -71.89263 40166 ft 407 kts 233°
2026-05-04 21:02 34.22383 -71.94577 40180 ft 409 kts 233°
2026-05-04 21:03 34.18760 -71.99929 40184 ft 412 kts 233°
2026-05-04 21:03 34.15126 -72.05287 40165 ft 412 kts 233°
2026-05-04 21:04 34.11514 -72.10604 40165 ft 412 kts 233°
2026-05-04 21:04 34.07875 -72.15954 40166 ft 413 kts 233°
2026-05-04 21:05 34.04224 -72.21312 40181 ft 413 kts 233°
2026-05-04 21:05 34.00568 -72.26668 40174 ft 414 kts 233°
2026-05-04 21:06 33.96315 -72.31417 40178 ft 423 kts 220°
2026-05-04 21:06 33.91327 -72.35144 40174 ft 425 kts 217°
2026-05-04 21:07 33.86254 -72.38841 40176 ft 427 kts 217°
2026-05-04 21:07 33.81156 -72.42529 40176 ft 426 kts 217°
2026-05-04 21:08 33.76083 -72.46208 40177 ft 425 kts 217°
2026-05-04 21:08 33.71031 -72.49859 40165 ft 422 kts 217°
2026-05-04 21:09 33.66024 -72.53477 40162 ft 422 kts 217°
2026-05-04 21:09 33.60980 -72.57115 40161 ft 423 kts 217°
2026-05-04 21:10 33.55928 -72.60753 40185 ft 424 kts 217°
2026-05-04 21:10 33.50844 -72.64411 40176 ft 427 kts 217°
2026-05-04 21:11 33.45745 -72.68070 40156 ft 426 kts 217°
2026-05-04 21:11 33.40670 -72.71712 40158 ft 425 kts 217°
2026-05-04 21:12 33.35598 -72.75344 40159 ft 425 kts 217°
2026-05-04 21:12 33.30530 -72.78969 40163 ft 424 kts 217°
2026-05-04 21:13 33.25462 -72.82588 40162 ft 423 kts 217°
2026-05-04 21:13 33.20437 -72.86173 40166 ft 424 kts 217°
2026-05-04 21:14 33.15365 -72.89787 40167 ft 424 kts 217°
2026-05-04 21:14 33.10291 -72.93396 40166 ft 425 kts 217°
2026-05-04 21:15 33.05193 -72.97018 40169 ft 427 kts 217°
2026-05-04 21:15 33.00081 -73.00643 40159 ft 426 kts 217°
2026-05-04 21:16 32.94988 -73.04253 40156 ft 426 kts 217°
2026-05-04 21:16 32.89901 -73.07851 40152 ft 425 kts 217°
2026-05-04 21:17 32.84816 -73.11444 40154 ft 425 kts 217°
2026-05-04 21:17 32.79732 -73.15032 40109 ft 425 kts 217°
2026-05-04 21:18 32.74663 -73.18603 40151 ft 423 kts 217°
2026-05-04 21:18 32.69634 -73.22143 40151 ft 423 kts 217°
2026-05-04 21:19 32.64565 -73.25705 40148 ft 423 kts 217°
2026-05-04 21:19 32.59495 -73.29263 40149 ft 423 kts 217°
2026-05-04 21:20 32.54412 -73.32826 40146 ft 425 kts 218°
2026-05-04 21:20 32.49326 -73.36386 40154 ft 424 kts 218°
2026-05-04 21:21 32.44246 -73.39937 40153 ft 423 kts 218°
2026-05-04 21:21 32.39177 -73.43476 40146 ft 423 kts 218°
2026-05-04 21:22 32.34104 -73.47013 40143 ft 423 kts 218°
2026-05-04 21:22 32.29071 -73.50518 40142 ft 422 kts 218°
2026-05-04 21:23 32.24004 -73.54041 40139 ft 423 kts 218°
2026-05-04 21:23 32.18922 -73.57571 40142 ft 424 kts 218°
2026-05-04 21:24 32.13818 -73.61111 40147 ft 426 kts 218°
2026-05-04 21:24 32.08710 -73.64648 40151 ft 425 kts 218°
2026-05-04 21:25 32.03622 -73.68168 40140 ft 423 kts 218°
2026-05-04 21:25 31.98542 -73.71678 40138 ft 423 kts 218°
2026-05-04 21:26 31.93466 -73.75179 40136 ft 422 kts 218°
2026-05-04 21:26 31.89261 -73.78077 40133 ft 421 kts 218°
2026-05-04 21:27 31.84193 -73.81567 40117 ft 422 kts 218°
2026-05-04 21:27 31.79503 -73.85540 40151 ft 412 kts 229°
2026-05-04 21:28 31.75723 -73.90538 40148 ft 409 kts 235°
2026-05-04 21:28 31.72094 -73.95697 40148 ft 409 kts 235°
2026-05-04 21:29 31.68507 -74.00830 40171 ft 409 kts 235°
2026-05-04 21:29 31.64887 -74.05984 40135 ft 408 kts 235°
2026-05-04 21:30 31.61286 -74.11114 40076 ft 406 kts 235°
2026-05-04 21:30 31.57696 -74.16218 40132 ft 407 kts 235°
2026-05-04 21:31 31.52260 -74.23932 40128 ft 409 kts 235°
2026-05-04 21:32 31.48653 -74.29043 40131 ft 410 kts 235°
2026-05-04 21:32 31.45017 -74.34188 40132 ft 409 kts 234°
2026-05-04 21:33 31.41376 -74.39332 40137 ft 409 kts 235°
2026-05-04 21:33 31.37746 -74.44456 40122 ft 408 kts 234°
2026-05-04 21:34 31.34111 -74.49580 40125 ft 410 kts 234°
2026-05-04 21:34 31.30461 -74.54717 40127 ft 411 kts 234°
2026-05-04 21:35 31.26830 -74.59820 40122 ft 411 kts 234°
2026-05-04 21:35 31.23162 -74.64969 40122 ft 411 kts 234°
2026-05-04 21:36 31.19499 -74.70104 40121 ft 411 kts 234°
2026-05-04 21:36 31.15840 -74.75227 40122 ft 411 kts 234°
2026-05-04 21:37 31.12176 -74.80350 40123 ft 412 kts 234°
2026-05-04 21:37 31.08491 -74.85495 40124 ft 413 kts 234°
2026-05-04 21:38 31.04801 -74.90641 40125 ft 413 kts 234°
2026-05-04 21:38 31.01127 -74.95757 40126 ft 413 kts 234°
2026-05-04 21:39 30.97431 -75.00897 40123 ft 413 kts 234°
2026-05-04 21:39 30.93738 -75.06026 40131 ft 413 kts 234°
2026-05-04 21:40 30.90043 -75.11153 40116 ft 413 kts 234°
2026-05-04 21:40 30.86335 -75.16288 40113 ft 415 kts 234°
2026-05-04 21:41 30.82637 -75.21404 40113 ft 415 kts 234°
2026-05-04 21:41 30.78915 -75.26546 40114 ft 415 kts 234°
2026-05-04 21:42 30.75196 -75.31678 40111 ft 415 kts 234°
2026-05-04 21:42 30.71478 -75.36800 40114 ft 415 kts 234°
2026-05-04 21:43 30.67758 -75.41921 40113 ft 414 kts 233°
2026-05-04 21:43 30.64019 -75.47059 40117 ft 417 kts 234°
2026-05-04 21:44 30.60265 -75.52211 40118 ft 418 kts 234°
2026-05-04 21:44 30.56506 -75.57364 40113 ft 418 kts 234°
2026-05-04 21:45 30.52740 -75.62520 40119 ft 418 kts 234°
2026-05-04 21:45 30.48997 -75.67637 40119 ft 418 kts 233°
2026-05-04 21:46 30.45229 -75.72782 40080 ft 418 kts 233°
2026-05-04 21:46 30.41460 -75.77922 40108 ft 419 kts 233°
2026-05-04 21:47 30.37666 -75.83087 40109 ft 420 kts 233°
2026-05-04 21:47 30.33891 -75.88221 40102 ft 418 kts 233°
2026-05-04 21:48 30.30124 -75.93338 40098 ft 418 kts 233°
2026-05-04 21:48 30.26371 -75.98429 40098 ft 419 kts 233°
2026-05-04 21:49 30.22577 -76.03569 40102 ft 420 kts 233°
2026-05-04 21:49 30.18778 -76.08709 40094 ft 419 kts 233°
2026-05-04 21:50 30.14986 -76.13832 40098 ft 420 kts 233°
2026-05-04 21:50 30.11185 -76.18962 40107 ft 421 kts 233°
2026-05-04 21:51 30.07384 -76.24084 40105 ft 423 kts 233°
2026-05-04 21:51 30.03560 -76.29231 40104 ft 422 kts 233°
2026-05-04 21:52 29.99740 -76.34366 40102 ft 420 kts 233°
2026-05-04 21:52 29.95934 -76.39476 40100 ft 419 kts 233°
2026-05-04 21:53 29.92132 -76.44574 40101 ft 419 kts 233°
2026-05-04 21:53 29.88340 -76.49651 40099 ft 421 kts 233°
2026-05-04 21:54 29.84510 -76.54774 40102 ft 422 kts 233°
2026-05-04 21:54 29.80662 -76.59913 40098 ft 424 kts 233°
2026-05-04 21:55 29.76813 -76.65047 40099 ft 423 kts 233°
2026-05-04 21:55 29.72976 -76.70159 40098 ft 421 kts 233°
2026-05-04 21:56 29.69143 -76.75259 40086 ft 421 kts 233°
2026-05-04 21:56 29.65320 -76.80340 40088 ft 423 kts 233°
2026-05-04 21:57 29.61458 -76.85456 40102 ft 424 kts 231°
2026-05-04 21:57 29.57051 -76.90035 40091 ft 429 kts 226°
2026-05-04 21:58 29.52506 -76.94508 40093 ft 430 kts 225°
2026-05-04 21:58 29.47950 -76.98966 40091 ft 430 kts 225°
2026-05-04 21:59 29.43405 -77.03416 40078 ft 428 kts 225°
2026-05-04 21:59 29.38909 -77.07810 40080 ft 427 kts 225°
2026-05-04 22:00 29.34392 -77.12221 40074 ft 426 kts 225°
2026-05-04 22:00 29.29875 -77.16626 40069 ft 426 kts 225°
2026-05-04 22:01 29.25358 -77.21026 40077 ft 426 kts 225°
2026-05-04 22:01 29.20837 -77.25425 40052 ft 428 kts 225°
2026-05-04 22:02 29.16297 -77.29836 40070 ft 428 kts 225°
2026-05-04 22:02 29.11747 -77.34252 40070 ft 428 kts 225°
2026-05-04 22:03 29.07230 -77.38631 40075 ft 428 kts 225°
2026-05-04 22:03 29.02676 -77.43039 40068 ft 428 kts 225°
2026-05-04 22:04 28.98130 -77.47451 40070 ft 428 kts 225°
2026-05-04 22:04 28.93515 -77.51745 40062 ft 427 kts 223°
2026-05-04 22:05 28.88938 -77.55998 40060 ft 420 kts 230°
2026-05-04 22:05 28.85420 -77.61180 40072 ft 416 kts 239°
2026-05-04 22:06 28.82262 -77.66736 40074 ft 418 kts 240°
2026-05-04 22:06 28.79147 -77.72340 40069 ft 418 kts 240°
2026-05-04 22:07 28.76035 -77.77948 40072 ft 418 kts 240°
2026-05-04 22:07 28.72686 -77.83383 40071 ft 422 kts 232°
2026-05-04 22:08 28.68254 -77.87827 40070 ft 427 kts 222°
2026-05-04 22:08 28.63526 -77.91885 40067 ft 425 kts 222°
2026-05-04 22:09 28.58814 -77.95877 40074 ft 424 kts 222°
2026-05-04 22:09 28.54069 -77.99915 40064 ft 428 kts 222°
2026-05-04 22:10 28.49286 -78.03968 40069 ft 429 kts 222°
2026-05-04 22:10 28.44498 -78.08028 40063 ft 429 kts 222°
2026-05-04 22:11 28.39714 -78.12075 40050 ft 427 kts 222°
2026-05-04 22:11 28.34960 -78.16095 40047 ft 425 kts 222°
2026-05-04 22:12 28.30216 -78.20102 40041 ft 425 kts 222°
2026-05-04 22:12 28.25455 -78.24117 40044 ft 427 kts 222°
2026-05-04 22:13 28.20686 -78.28135 40043 ft 428 kts 222°
2026-05-04 22:13 28.16708 -78.31483 40045 ft 428 kts 222°
2026-05-04 22:14 28.11942 -78.35489 40041 ft 425 kts 222°
2026-05-04 22:14 28.07202 -78.39471 40039 ft 423 kts 222°
2026-05-04 22:15 28.02576 -78.43511 40034 ft 422 kts 223°
2026-05-04 22:15 27.97843 -78.47482 40040 ft 423 kts 222°
2026-05-04 22:16 27.93204 -78.51546 40044 ft 424 kts 222°
2026-05-04 22:16 27.88403 -78.55464 40016 ft 425 kts 221°
2026-05-04 22:17 27.83665 -78.59449 40036 ft 424 kts 222°
2026-05-04 22:17 27.78899 -78.63401 40037 ft 425 kts 221°
2026-05-04 22:18 27.74149 -78.67355 40034 ft 424 kts 222°
2026-05-04 22:18 27.69385 -78.71310 40046 ft 426 kts 221°
2026-05-04 22:19 27.64597 -78.75281 40049 ft 427 kts 221°
2026-05-04 22:19 27.59817 -78.79241 40017 ft 425 kts 221°
2026-05-04 22:20 27.55053 -78.83185 40028 ft 425 kts 221°
2026-05-04 22:20 27.50272 -78.87138 40024 ft 426 kts 221°
2026-05-04 22:21 27.45521 -78.91061 40027 ft 426 kts 221°
2026-05-04 22:21 27.40731 -78.95013 40029 ft 427 kts 221°
2026-05-04 22:22 27.35931 -78.98968 40027 ft 427 kts 221°
2026-05-04 22:22 27.31125 -79.02925 40026 ft 428 kts 221°
2026-05-04 22:23 27.26314 -79.06880 40027 ft 428 kts 221°
2026-05-04 22:23 27.21486 -79.10846 40028 ft 430 kts 221°
2026-05-04 22:24 27.16669 -79.14796 40027 ft 428 kts 221°
2026-05-04 22:24 27.11899 -79.18706 40025 ft 426 kts 221°
2026-05-04 22:25 27.07097 -79.22638 40019 ft 427 kts 221°
2026-05-04 22:25 27.02304 -79.26557 40021 ft 425 kts 221°
2026-05-04 22:26 26.97527 -79.30459 40018 ft 424 kts 221°
2026-05-04 22:26 26.92784 -79.34329 40016 ft 420 kts 221°
2026-05-04 22:26 26.90454 -79.36224 39617 ft 412 kts 221°
2026-05-04 22:27 26.88138 -79.38116 38904 ft 412 kts 221°
2026-05-04 22:27 26.85817 -79.40010 38075 ft 413 kts 221°
2026-05-04 22:27 26.83487 -79.41904 37275 ft 412 kts 221°
2026-05-04 22:27 26.81155 -79.43799 36316 ft 416 kts 221°
2026-05-04 22:28 26.78799 -79.45719 35230 ft 422 kts 221°
2026-05-04 22:28 26.76402 -79.47669 34060 ft 429 kts 222°
2026-05-04 22:28 26.73953 -79.49660 32653 ft 439 kts 221°
2026-05-04 22:28 26.71497 -79.51654 31411 ft 444 kts 221°
2026-05-04 22:29 26.68980 -79.53693 30225 ft 448 kts 221°
2026-05-04 22:29 26.66465 -79.55730 29302 ft 443 kts 221°
2026-05-04 22:29 26.63991 -79.57733 28399 ft 436 kts 221°
2026-05-04 22:29 26.61549 -79.59713 27509 ft 431 kts 221°
2026-05-04 22:30 26.59140 -79.61666 26639 ft 425 kts 220°
2026-05-04 22:30 26.56759 -79.63592 25791 ft 420 kts 220°
2026-05-04 22:30 26.54405 -79.65495 24943 ft 415 kts 220°
2026-05-04 22:30 26.52085 -79.67371 24131 ft 410 kts 220°
2026-05-04 22:31 26.49786 -79.69229 23274 ft 405 kts 220°
2026-05-04 22:31 26.47510 -79.71066 22273 ft 401 kts 220°
2026-05-04 22:31 26.45371 -79.73021 21341 ft 393 kts 228°
2026-05-04 22:31 26.43518 -79.75224 20447 ft 387 kts 231°
2026-05-04 22:32 26.41703 -79.77426 19567 ft 383 kts 231°
2026-05-04 22:32 26.39911 -79.79605 18718 ft 379 kts 231°
2026-05-04 22:32 26.38195 -79.81804 17793 ft 373 kts 237°
2026-05-04 22:32 26.36725 -79.84161 16845 ft 367 kts 238°
2026-05-04 22:33 26.35272 -79.86476 15967 ft 363 kts 238°
2026-05-04 22:33 26.33831 -79.88772 15313 ft 354 kts 238°
2026-05-04 22:33 26.32488 -79.90914 15275 ft 328 kts 238°
2026-05-04 22:33 26.31232 -79.92919 15260 ft 304 kts 238°
2026-05-04 22:34 26.30065 -79.94783 15212 ft 283 kts 238°
2026-05-04 22:34 26.28977 -79.96520 15170 ft 264 kts 239°
2026-05-04 22:34 26.27960 -79.98143 15132 ft 247 kts 239°
2026-05-04 22:34 26.27010 -79.99658 15079 ft 230 kts 239°
2026-05-04 22:35 26.26092 -80.01053 15017 ft 217 kts 232°
2026-05-04 22:35 26.24912 -80.02066 14978 ft 212 kts 217°
2026-05-04 22:35 26.23493 -80.02621 14677 ft 221 kts 199°
2026-05-04 22:35 26.22010 -80.02947 14477 ft 215 kts 201°
2026-05-04 22:36 26.20508 -80.03302 14221 ft 231 kts 201°
2026-05-04 22:36 26.18793 -80.03714 13954 ft 277 kts 199°
2026-05-04 22:36 26.16836 -80.04159 13582 ft 292 kts 198°
2026-05-04 22:36 26.14831 -80.04596 13161 ft 295 kts 198°
2026-05-04 22:37 26.12818 -80.05050 12741 ft 294 kts 198°
2026-05-04 22:37 26.10818 -80.05512 12319 ft 293 kts 198°
2026-05-04 22:37 26.08867 -80.05955 12223 ft 276 kts 198°
2026-05-04 22:37 26.06999 -80.06380 11663 ft 281 kts 199°
2026-05-04 22:38 26.05085 -80.06932 11154 ft 289 kts 199°
2026-05-04 22:38 26.03126 -80.07406 10953 ft 289 kts 197°
2026-05-04 22:38 26.01166 -80.07886 10720 ft 288 kts 198°
2026-05-04 22:38 25.99219 -80.08397 10496 ft 287 kts 199°
2026-05-04 22:39 25.97270 -80.08914 10268 ft 287 kts 198°
2026-05-04 22:39 25.95326 -80.09419 10042 ft 288 kts 198°
2026-05-04 22:39 25.93450 -80.10066 9788 ft 274 kts 212°
2026-05-04 22:39 25.91958 -80.11293 9358 ft 264 kts 230°
2026-05-04 22:40 25.90931 -80.12949 8924 ft 259 kts 243°
2026-05-04 22:40 25.90072 -80.14699 8476 ft 256 kts 243°
2026-05-04 22:40 25.89228 -80.16433 8052 ft 253 kts 244°
2026-05-04 22:40 25.88417 -80.18098 7909 ft 242 kts 243°
2026-05-04 22:41 25.87848 -80.19853 7399 ft 243 kts 263°
2026-05-04 22:41 25.87762 -80.21726 6923 ft 243 kts 268°
2026-05-04 22:41 25.87710 -80.23581 6462 ft 244 kts 268°
2026-05-04 22:41 25.87658 -80.25472 5969 ft 244 kts 268°
2026-05-04 22:42 25.87594 -80.27361 5475 ft 245 kts 268°
2026-05-04 22:42 25.87700 -80.29207 4929 ft 235 kts 288°
2026-05-04 22:42 25.88403 -80.30818 4449 ft 232 kts 299°
2026-05-04 22:42 25.89164 -80.32384 3999 ft 229 kts 301°
2026-05-04 22:43 25.89930 -80.33937 3517 ft 228 kts 302°
2026-05-04 22:43 25.90670 -80.35446 3073 ft 216 kts 301°
2026-05-04 22:43 25.91353 -80.36848 3009 ft 203 kts 301°
2026-05-04 22:43 25.92030 -80.38240 3012 ft 203 kts 302°
2026-05-04 22:44 25.92707 -80.39636 3014 ft 207 kts 303°
2026-05-04 22:44 25.93381 -80.41022 3015 ft 206 kts 302°
2026-05-04 22:44 25.93772 -80.42549 2972 ft 211 kts 272°
2026-05-04 22:44 25.93686 -80.44173 3013 ft 209 kts 272°
2026-05-04 22:45 25.93687 -80.45764 3015 ft 205 kts 272°
2026-05-04 22:45 25.93295 -80.48848 2983 ft 201 kts 244°
2026-05-04 22:45 25.92258 -80.49873 2987 ft 205 kts 203°
2026-05-04 22:46 25.90876 -80.50034 2983 ft 200 kts 164°
2026-05-04 22:46 25.89777 -80.49260 2992 ft 180 kts 126°
2026-05-04 22:46 25.89073 -80.48125 3005 ft 177 kts 116°
2026-05-04 22:46 25.88456 -80.46962 3031 ft 173 kts 115°
2026-05-04 22:47 25.87856 -80.45788 3013 ft 176 kts 115°
2026-05-04 22:47 25.87262 -80.44620 2870 ft 176 kts 115°
2026-05-04 22:47 25.86664 -80.43442 2651 ft 175 kts 115°
2026-05-04 22:47 25.86057 -80.42251 2416 ft 174 kts 116°
2026-05-04 22:48 25.85473 -80.41110 2176 ft 169 kts 115°
2026-05-04 22:48 25.84908 -80.40016 1961 ft 156 kts 113°
2026-05-04 22:48 25.84383 -80.38974 1752 ft 153 kts 114°
2026-05-04 22:48 25.83876 -80.37980 1555 ft 144 kts 114°
2026-05-04 22:49 25.83382 -80.37011 1379 ft 145 kts 114°
2026-05-04 22:49 25.82883 -80.36026 1185 ft 149 kts 114°
2026-05-04 22:49 25.82375 -80.35028 1009 ft 149 kts 114°
2026-05-04 22:49 25.81878 -80.34056 852 ft 139 kts 110°
2026-05-04 22:50 25.81396 -80.33140 625 ft 139 kts 111°
2026-05-04 22:50 25.80925 -80.32208 460 ft 136 kts 113°
2026-05-04 22:50 25.80458 -80.31297 299 ft 137 kts 112°
2026-05-04 22:50 25.79993 -80.30355 103 ft 141 kts 114°
2026-05-04 22:51 25.79524 -80.29448 23 ft 118 kts 114°
2026-05-04 22:51 25.79209 -80.28807 19 ft 90 kts 118°
2026-05-04 22:51 25.78993 -80.28376 23 ft 29 kts 116°
2026-05-04 22:51 25.78973 -80.28266 25 ft 6 kts 90°
2026-05-04 22:52 25.78974 -80.28246 25 ft 1 kts 84°
2026-05-04 22:52 25.78977 -80.28233 25 ft 1 kts 77°
2026-05-04 22:52 25.78977 -80.28232 25 ft 0 kts 77°
2026-05-04 22:52 25.78978 -80.28227 24 ft 2 kts 77°
2026-05-04 22:53 25.78991 -80.28205 26 ft 8 kts 56°
2026-05-04 22:53 25.79029 -80.28160 25 ft 5 kts 31°
2026-05-04 22:53 25.79069 -80.28159 24 ft 7 kts 347°
2026-05-04 22:53 25.79096 -80.28187 22 ft 9 kts 305°
2026-05-04 22:54 25.79117 -80.28253 23 ft 11 kts 288°
2026-05-04 22:54 25.79147 -80.28346 24 ft 14 kts 295°
2026-05-04 22:54 25.79213 -80.28417 24 ft 14 kts 316°
2026-05-04 22:54 25.79269 -80.28512 23 ft 16 kts 301°
2026-05-04 22:55 25.79333 -80.28631 21 ft 19 kts 298°
2026-05-04 22:55 25.79399 -80.28760 22 ft 15 kts 307°
2026-05-04 22:55 25.79477 -80.28805 24 ft 11 kts 352°
2026-05-04 22:55 25.79554 -80.28808 22 ft 12 kts 358°
2026-05-04 22:56 25.79642 -80.28810 23 ft 14 kts 359°
2026-05-04 22:56 25.79739 -80.28816 24 ft 15 kts 356°
2026-05-04 22:56 25.79846 -80.28822 23 ft 16 kts 358°
2026-05-04 22:56 25.79920 -80.28788 23 ft 9 kts 53°
2026-05-04 22:57 25.79935 -80.28721 26 ft 13 kts 81°
2026-05-04 22:57 25.79941 -80.28587 21 ft 19 kts 87°
2026-05-04 22:57 25.79948 -80.28441 21 ft 19 kts 88°
2026-05-04 22:57 25.79954 -80.28293 21 ft 19 kts 87°
2026-05-04 22:58 25.79961 -80.28142 21 ft 20 kts 88°
2026-05-04 22:58 25.79967 -80.27997 20 ft 17 kts 87°
2026-05-04 22:58 25.79944 -80.27903 22 ft 7 kts 136°
2026-05-04 22:58 25.79925 -80.27897 21 ft 3 kts 178°
2026-05-04 22:59 25.79907 -80.27906 24 ft 3 kts 218°
2026-05-04 22:59 25.79890 -80.27934 24 ft 7 kts 245°
2026-05-04 22:59 25.79854 -80.27988 21 ft 10 kts 215°
2026-05-04 22:59 25.79791 -80.28032 21 ft 7 kts 213°
2026-05-04 23:00 25.79776 -80.28043 21 ft 0 kts 213°